NOAA 16 DEB, 41509

Orbit data source: Space-Track

NOAA 16 DEB, 41509 is space debris in SSO originally from a launch on Thu, 21 Sep 2000 UTC launched from the Air Force Western Test Range (AFWTR). Debris objects in space refer to the collection of defunct objects orbiting the Earth. Examples of debris include non-operational satellites, rocket bodies, and fragments generated from explosions, collisions, or faulty payload assembly.

Loading next visibility...
Identifier
41509, 2000-055MH
Orbit
SSO
Country
Flag of USUS
Related business
Manufacturer
Unknown
Mission
Spacecraft
Bus & Motor
Unknown
Mass
Unknown
Launch date (UTC)
2000-09-21 (26 years ago)
Launch vehicle
Unknown
Launch site
Air Force Western Test Range (AFWTR)
Object type
Payload
Rocket body
Debris
Shape & HBR
Unknown shape, 0.1 m
Radar Cross Section
Small (<0.1 m²)

Expand to show TLE details & history
Last TLE update: 2 days ago

TLE from 2 days ago
0 NOAA 16 DEB
1 41509U 00055MH  26125.50291334  .00004403  00000-0  16585-2 0  9990
2 41509  98.7591 224.9856 0018215 104.2943 256.0264 14.31853717523674
Epoch: 2026-05-05T12:04Z
TLE epoch observation values (Epoch: 2026-05-05T12:04:11.712Z)
Latitude
-0.00002°
Longitude
-179.44002°
Altitude
791.644 km
Speed
7.456 km/s
True Right ascension
14h 59m 56s
True Declination
0° 00' 00"
Sunlit
Object was in full shadow at epoch
Visualization orbit readout
Latitude
Unknown
Longitude
Unknown
Altitude
Unknown
Speed
Unknown
Apparent Right ascension
Unknown
Apparent Declination
Unknown
Sunlit
N/A
Visualization observer readout
Local Sidereal Time
08:31:46
Azimuth
Unknown
Elevation
Unknown
Doppler factor
Unknown
Orbital elements
Apogee altitude
795.73 km
Perigee altitude
769.643 km
Semi-major axis
7,160.823 km
Eccentricity
0.00182
Inclination
98.7591°
RAAN
224.9856°
Arg. of periapsis
104.2943°
True anomaly
255.82396°
Mean anomaly
256.0264°
Eccentric anomaly
255.92517°
Mean motion
3.58178 °/min
Orbital period
100.51 mins
BSTAR
0.0016585
Loading maneuver chart data...
Computing Atmospheric mass density...
Loading historical data...
Loading historical data...
Loading historical data...
Loading historical data...
Loading historical data...
Loading historical data...
Loading historical data...

Documentation

Showing up to 5 results
|